Dauntless Aviation
Airports Europe Czech Republic
LKPO
PRV

Prerov

Prerov, CZECH REPUBLIC

Airport Info
Suggest Updated Information for this Airport

Location

Latitude / Longitude: 49°25'32"N / 17°24'16"E
  49°25.548'N / 17°24.282'E
  49.4258 / 17.4047

Nearby radio navigation aids

CK PREROV NDB. 63.6° 2.8nm from CK to field.

Runway Information

Runway 06 /24

Dimensions: 8202 x 196 ft.
Surface: ASP
 
Runway 06
Runway 24
Latitude: 49.421419 49.430439
Longitude: 17.389275 17.420478
Elevation: 663 ft. 663 ft.
Runway true heading: 64.6 244.6
 

Instrument Procedures

  Aerodrome Chart

IAPs (Instrument Approach Procedures)

  ILS/DME Rwy 06
  NDB/DME (GPS) or PAR Rwy 06
  NDB (GPS) or PAR Rwy 06
  POLOM 3A

Departure Procedures

  Instrument Departure Chart HLV 1A - 2Z
  Instrument Departure Chart LUTIM 2A - 2Z
  Instrument Departure Chart MORKO 2Z
  Instrument Departure Chart POLOM 3A
Satellite photo at:
Airport distance calculator
From:
Weather Reports

METAR

LKKU
23.6nm SE
LKKU 050600Z 01010KT 9999 BKN018 11/07 Q1024
LKMT
31.3nm NE
LKMT 050630Z 03009KT 9999 OVC014 10/07 Q1026 NOSIG
LKTB
33.3nm SW
LKTB 050630Z 33010KT 9999 FEW015 BKN023 11/06 Q1025 NOSIG

TAF

LKMT
31.3nm NE
TAF LKMT 050500Z 0506/0612 02007KT 9999 BKN015 TEMPO 0506/0509 5000 RA BR BKN010 TEMPO 0509/0515 36010G20KT BECMG 0511/0513 9999 BKN030 TEMPO 0514/0521 7000 -SHRA BKN020TCU TEMPO 0523/0609 04005KT CAVOK
LKTB
33.3nm SW
TAF LKTB 050500Z 0506/0612 34010KT 9999 BKN035 BECMG 0508/0510 04005KT TEMPO 0510/0515 FEW030TCU BECMG 0517/0519 CAVOK TEMPO 0610/0612 9999 SCT045
Safelog

 

Dauntless Aviation

© 2007-2016 Dauntless Aviation, all rights reserved
Information provided via PilotNav comes from a variety of official and unofficial data sources. As errors are possible, do not use PilotNav for primary flight planning purposes. Verify any information that you receive via PilotNav with current and canonical charts and other official documents. The material in this database is subject to database copyrights held by Dauntless Aviation and may not be copied without the express permission of Dauntless Aviation - licenses for use of part of all of this data are available for purchase; enquire via the Dauntless Aviation helpdesk. A number of mechanisms and markers exist in the database to protect against and identify infringement / copyright. Automated queries against this website are stictly prohibited, and all activity is logged and analyzed.